TimeEDT,TemperatureF,Dew PointF,Humidity,Sea Level PressureIn,VisibilityMPH,Wind Direction,Wind SpeedMPH,Gust SpeedMPH,PrecipitationIn,Events,Conditions,WindDirDegrees,DateUTC
12:15 AM,37.8,23.0,55,30.24,10.0,SSW,8.1,-,N/A,,Clear,210,2013-10-26 04:15:00
12:35 AM,37.4,23.0,56,30.23,10.0,SSW,9.2,-,N/A,,Clear,210,2013-10-26 04:35:00
12:55 AM,37.6,23.0,56,30.22,10.0,SSW,9.2,-,N/A,,Clear,210,2013-10-26 04:55:00
1:15 AM,37.2,23.0,56,30.22,10.0,SSW,8.1,-,N/A,,Clear,210,2013-10-26 05:15:00
1:35 AM,36.9,23.4,58,30.21,10.0,SW,8.1,-,N/A,,Clear,220,2013-10-26 05:35:00
1:55 AM,36.5,23.2,59,30.21,10.0,SSW,9.2,-,N/A,,Clear,210,2013-10-26 05:55:00
2:15 AM,36.5,23.2,59,30.19,10.0,SSW,8.1,-,N/A,,Clear,210,2013-10-26 06:15:00
2:35 AM,36.1,23.4,60,30.19,10.0,SSW,8.1,-,N/A,,Clear,210,2013-10-26 06:35:00
2:55 AM,35.8,23.4,61,30.18,10.0,SSW,9.2,16.1,N/A,,Clear,210,2013-10-26 06:55:00
3:15 AM,35.8,23.5,61,30.17,10.0,SSW,9.2,17.3,N/A,,Clear,210,2013-10-26 07:15:00
3:35 AM,35.8,23.5,61,30.16,10.0,SSW,9.2,-,N/A,,Clear,210,2013-10-26 07:35:00
3:55 AM,35.6,23.5,62,30.16,10.0,SSW,10.4,-,N/A,,Clear,210,2013-10-26 07:55:00
4:15 AM,35.2,23.5,62,30.15,10.0,SSW,9.2,-,N/A,,Clear,210,2013-10-26 08:15:00
4:35 AM,35.6,23.7,62,30.14,10.0,SSW,11.5,16.1,N/A,,Clear,210,2013-10-26 08:35:00
4:55 AM,35.4,23.7,62,30.14,10.0,SSW,9.2,-,N/A,,Clear,210,2013-10-26 08:55:00
5:15 AM,35.6,23.7,62,30.13,10.0,SW,11.5,-,N/A,,Clear,220,2013-10-26 09:15:00
5:35 AM,35.2,23.9,63,30.13,10.0,SSW,10.4,-,N/A,,Clear,210,2013-10-26 09:35:00
5:55 AM,35.1,23.9,64,30.12,10.0,SSW,10.4,-,N/A,,Clear,210,2013-10-26 09:55:00
6:15 AM,34.9,23.9,64,30.11,10.0,SSW,10.4,16.1,N/A,,Clear,210,2013-10-26 10:15:00
6:35 AM,34.9,23.9,64,30.10,10.0,SSW,11.5,-,N/A,,Scattered Clouds,210,2013-10-26 10:35:00
6:55 AM,35.1,24.1,64,30.10,10.0,SSW,12.7,18.4,N/A,,Scattered Clouds,210,2013-10-26 10:55:00
7:15 AM,35.1,24.1,64,30.08,10.0,SSW,10.4,18.4,N/A,,Scattered Clouds,210,2013-10-26 11:15:00
7:35 AM,36.5,24.6,62,30.07,10.0,SSW,11.5,19.6,N/A,,Mostly Cloudy,210,2013-10-26 11:35:00
7:55 AM,37.0,24.6,61,30.07,10.0,SSW,10.4,17.3,N/A,,Overcast,210,2013-10-26 11:55:00
8:15 AM,37.4,24.8,60,30.06,10.0,SSW,12.7,16.1,N/A,,Overcast,210,2013-10-26 12:15:00
8:35 AM,38.3,25.0,59,30.06,10.0,SSW,12.7,19.6,N/A,,Overcast,210,2013-10-26 12:35:00
8:55 AM,39.2,25.3,58,30.05,10.0,SSW,12.7,21.9,N/A,,Overcast,210,2013-10-26 12:55:00
9:15 AM,40.1,25.5,56,30.04,10.0,SSW,13.8,23.0,N/A,,Overcast,210,2013-10-26 13:15:00
9:35 AM,41.0,25.7,55,30.03,10.0,SSW,11.5,19.6,N/A,,Overcast,210,2013-10-26 13:35:00
9:55 AM,42.1,25.7,52,30.02,10.0,SSW,17.3,21.9,N/A,,Overcast,210,2013-10-26 13:55:00
10:15 AM,42.8,25.7,51,30.01,10.0,SSW,15.0,24.2,N/A,,Overcast,210,2013-10-26 14:15:00
10:35 AM,43.0,26.1,51,30.00,10.0,SW,15.0,24.2,N/A,,Overcast,220,2013-10-26 14:35:00
10:55 AM,43.0,26.6,52,29.99,10.0,SW,19.6,25.3,N/A,,Overcast,220,2013-10-26 14:55:00
11:15 AM,43.0,27.0,53,29.99,10.0,SSW,15.0,26.5,N/A,,Overcast,210,2013-10-26 15:15:00
11:35 AM,43.0,28.2,56,29.99,10.0,SW,12.7,20.7,N/A,,Overcast,220,2013-10-26 15:35:00
11:55 AM,43.3,29.5,58,29.99,10.0,SW,10.4,20.7,N/A,,Overcast,230,2013-10-26 15:55:00
12:15 PM,44.6,30.2,57,29.99,10.0,SW,11.5,19.6,N/A,,Overcast,230,2013-10-26 16:15:00
12:35 PM,45.3,30.9,57,29.97,10.0,SW,18.4,26.5,N/A,,Overcast,230,2013-10-26 16:35:00
12:55 PM,45.9,31.3,57,29.96,10.0,SW,16.1,21.9,N/A,,Overcast,220,2013-10-26 16:55:00
1:15 PM,48.2,31.8,53,29.93,10.0,SW,15.0,25.3,N/A,,Scattered Clouds,220,2013-10-26 17:15:00
1:35 PM,49.8,32.2,51,29.94,10.0,WSW,17.3,26.5,N/A,,Clear,250,2013-10-26 17:35:00
1:55 PM,51.1,32.4,49,29.94,10.0,SW,15.0,25.3,N/A,,Clear,230,2013-10-26 17:55:00
2:15 PM,52.7,32.9,47,29.93,10.0,WSW,16.1,25.3,N/A,,Scattered Clouds,240,2013-10-26 18:15:00
2:35 PM,50.9,32.4,49,29.94,10.0,WSW,12.7,23.0,N/A,,Mostly Cloudy,250,2013-10-26 18:35:00
2:55 PM,52.3,32.9,48,29.92,10.0,WSW,16.1,24.2,N/A,,Mostly Cloudy,250,2013-10-26 18:55:00
3:15 PM,54.0,33.1,45,29.92,10.0,WSW,15.0,25.3,N/A,,Scattered Clouds,250,2013-10-26 19:15:00
3:35 PM,53.4,33.8,47,29.92,10.0,WSW,13.8,18.4,N/A,,Scattered Clouds,240,2013-10-26 19:35:00
3:55 PM,53.6,34.2,48,29.92,10.0,WSW,10.4,17.3,N/A,,Overcast,240,2013-10-26 19:55:00
4:15 PM,54.0,34.7,48,29.93,10.0,WSW,13.8,18.4,N/A,,Overcast,250,2013-10-26 20:15:00
4:35 PM,55.2,35.6,48,29.93,10.0,West,17.3,25.3,N/A,,Overcast,280,2013-10-26 20:35:00
4:55 PM,55.6,35.6,47,29.94,10.0,West,12.7,19.6,N/A,,Overcast,280,2013-10-26 20:55:00
5:15 PM,55.0,34.7,46,29.94,10.0,West,10.4,-,N/A,,Scattered Clouds,280,2013-10-26 21:15:00
5:35 PM,54.7,34.0,46,29.95,10.0,WNW,12.7,19.6,N/A,,Scattered Clouds,290,2013-10-26 21:35:00
5:55 PM,53.6,33.8,47,29.96,10.0,WNW,9.2,17.3,N/A,,Scattered Clouds,290,2013-10-26 21:55:00
6:15 PM,53.1,33.6,48,29.96,10.0,West,10.4,17.3,N/A,,Scattered Clouds,280,2013-10-26 22:15:00
6:35 PM,51.8,32.2,47,29.97,10.0,WNW,10.4,17.3,N/A,,Scattered Clouds,290,2013-10-26 22:35:00
6:55 PM,51.4,31.8,47,29.98,10.0,WNW,5.8,-,N/A,,Mostly Cloudy,290,2013-10-26 22:55:00
7:15 PM,50.7,32.0,49,29.99,10.0,WNW,9.2,-,N/A,,Overcast,290,2013-10-26 23:15:00
7:35 PM,50.0,30.9,48,30.01,10.0,NW,6.9,-,N/A,,Scattered Clouds,310,2013-10-26 23:35:00
7:55 PM,48.9,30.0,48,30.02,10.0,NW,8.1,-,N/A,,Clear,310,2013-10-26 23:55:00
8:15 PM,46.8,30.0,52,30.03,10.0,WNW,3.5,-,N/A,,Scattered Clouds,300,2013-10-27 00:15:00
8:35 PM,44.8,30.0,56,30.03,10.0,WNW,3.5,-,N/A,,Scattered Clouds,290,2013-10-27 00:35:00
8:55 PM,38.1,29.8,72,30.04,10.0,West,3.5,-,N/A,,Clear,280,2013-10-27 00:55:00
9:15 PM,41.4,30.2,65,30.04,10.0,WNW,4.6,-,N/A,,Clear,300,2013-10-27 01:15:00
9:35 PM,41.5,29.8,63,30.05,10.0,WNW,3.5,-,N/A,,Clear,300,2013-10-27 01:35:00
9:55 PM,39.2,29.5,68,30.06,10.0,NW,3.5,-,N/A,,Clear,310,2013-10-27 01:55:00
10:15 PM,38.3,29.3,70,30.06,10.0,NW,3.5,-,N/A,,Clear,310,2013-10-27 02:15:00
10:35 PM,37.6,29.3,72,30.07,10.0,Calm,Calm,-,N/A,,Clear,0,2013-10-27 02:35:00
10:55 PM,35.1,29.1,79,30.07,10.0,WNW,3.5,-,N/A,,Clear,290,2013-10-27 02:55:00
11:15 PM,36.0,29.8,78,30.08,10.0,NW,4.6,-,N/A,,Clear,320,2013-10-27 03:15:00
11:35 PM,37.8,29.7,73,30.08,10.0,NW,4.6,-,N/A,,Clear,310,2013-10-27 03:35:00
11:55 PM,37.6,29.5,73,30.09,10.0,NW,4.6,-,N/A,,Clear,310,2013-10-27 03:55:00